Flag Weather past 2 weeks in Coesfeld, North Rhine-Westphalia, Germany

Now
43 °F

Quite cool.


Feels Like: 41 °F
Forecast: 37 / 47 °F
Wind: 3 mph from Southwest

Location: Rheine-Bentlage

Current Time: Nov 24, 2014 at 6:53:03 PM

Latest Report: Nov 24, 2014 at 6:20 PM


Visibility: N/A

Pressure: 30.30 "Hg

Humidity: 81%

Dew point: 37 °F

Location of CoesfeldLocation

Historic Weather in Coesfeld — Graph

°F

Coesfeld temperature yesterday

Maximum temperature yesterday: 59 °F (at 2:20 PM)
Minimum temperature yesterday: 45 °F (at 12:20 AM)
Average temperature yesterday: 50 °F

Past Weeks' High & Low Weather Summary

 TemperatureHumidityPressure
High59 °F (Nov 23, 2:20 PM)100% (Nov 10, 6:20 AM)30.36 "Hg (Nov 10, 6:20 AM)
Low36 °F (Nov 21, 3:20 AM)66% (Nov 21, 1:20 PM)29.47 "Hg (Nov 16, 1:20 PM)
Average47 °F89%29.90 "Hg
* Reported Nov 10 5:20 AM — Nov 24 5:20 PM, Coesfeld, Weather by CustomWeather, © 2014

Note: Actual official high and low records may vary slightly from our data, if they occured in-between our weather recording intervals... More about our weather records

Advertising

Coesfeld weather history for previous 24 hours

 ConditionsComfort  
Time TempWeatherWind HumidityBarometerVisibility
5:20 PM
Nov 24
45 °FQuite cool.5 mph81%30.30 "HgN/A
4:20 PM46 °FCool.5 mph76%30.27 "HgN/A
3:20 PM50 °FCool.7 mph67%30.27 "HgN/A
2:20 PM50 °FCool.8 mph67%30.27 "HgN/A
1:20 PM50 °FPassing clouds.9 mph67%30.24 "HgN/A
12:20 PM50 °FPassing clouds.8 mph71%30.24 "HgN/A
11:20 AM48 °FPassing clouds.7 mph82%30.24 "HgN/A
10:20 AM46 °FCool.6 mph87%30.24 "HgN/A
9:20 AM45 °FPassing clouds.6 mph93%30.21 "HgN/A
8:20 AM45 °FPassing clouds.6 mph93%30.18 "HgN/A
7:20 AM45 °FPartly cloudy.7 mph93%30.15 "HgN/A
6:20 AM46 °FPassing clouds.8 mph93%30.12 "HgN/A
5:56 AM46 °FPartly cloudy.8 mph93%30.12 "HgN/A
5:20 AM48 °FLight rain. Passing clouds.10 mph87%30.09 "HgN/A
4:20 AM48 °FCool.9 mph100%30.07 "HgN/A
3:20 AM50 °FCool.9 mph94%30.04 "HgN/A
2:20 AM52 °FCool.8 mph94%30.01 "HgN/A
1:20 AM54 °FCool.6 mph82%29.98 "HgN/A
12:20 AM55 °FCool.6 mph77%29.98 "HgN/A
11:20 PM
Nov 23
50 °FCool.2 mph88%29.95 "HgN/A
10:20 PM50 °FCool.3 mph88%29.95 "HgN/A
9:20 PM52 °FCool.3 mph88%29.95 "HgN/A
8:20 PM52 °FCool.3 mph88%29.95 "HgN/A
7:20 PM52 °FCool.3 mph82%29.95 "HgN/A
6:20 PM52 °FCool.5 mph82%29.95 "HgN/A
Weather by CustomWeather, © 2014

See weather overviewHow to use our weather pages